DateTime,DeltaTime,Roll,TargetAngle,Position,Power
2022-05-24 14:57:18.679,0,2.11,5.74,2,-10.81
2022-05-24 14:57:18.794,0.115006417036057,1.69,2.31,2,5.09
2022-05-24 14:57:18.908,0.228996947407722,0.98,-1.42,1,19.22
2022-05-24 14:57:19.023,0.344003364443779,0.19,-4.58,0,25.46
2022-05-24 14:57:19.138,0.45899972319603,-0.0600000000000001,-3,0,10.23
2022-05-24 14:57:19.253,0.574006140232086,0.26,0.54,-2,-3.81
2022-05-24 14:57:19.368,0.689002498984337,0.88,4.07,-1,-26.89
2022-05-24 14:57:19.477,0.798004120588303,1,2.28,1,-6.27
2022-05-24 14:57:19.593,0.914006307721138,0.74,-0.29,1,12.69
2022-05-24 14:57:19.708,1.02900266647339,0.22,-3.3,0,21.84
2022-05-24 14:57:19.822,1.14300325512886,-0.65,-7.82,0,35.9
2022-05-24 14:57:19.936,1.25700384378433,-1.03,-7.04,-2,28.12
2022-05-24 14:57:20.051,1.37200020253658,-0.48,-1.03,-4,-10.3
2022-05-24 14:57:20.167,1.48800238966942,-0.07,-0.15,-5,-14.31
2022-05-24 14:57:20.281,1.60200297832489,0.33,1.15,-5,-22.38
2022-05-24 14:57:20.395,1.71600356698036,0.16,-1.93,-3,-4.52
2022-05-24 14:57:20.510,1.83099992573261,-0.29,-4.77,-4,15.35
2022-05-24 14:57:20.624,1.94500051438808,-1.21,-9.95,-4,30.12
2022-05-24 14:57:20.739,2.05999687314034,-2.07,-12.75,-5,39.16
2022-05-24 14:57:20.854,2.17500329017639,-2.13,-9.48,-6,14.95
2022-05-24 14:57:20.968,2.28900387883186,-1.75,-6.21,-8,-0.41
2022-05-24 14:57:21.084,2.4050060659647,-1.11,-2.86,-8,-21.57
2022-05-24 14:57:21.194,2.51500345766544,-0.43,-0.28,-7,-27.92
2022-05-24 14:57:21.308,2.62900404632092,-0.29,-2.18,-5,-10.73
2022-05-24 14:57:21.423,2.74400040507317,-0.64,-5.47,-5,11.48
2022-05-24 14:57:21.538,2.85900682210922,-1.54,-11.12,-5,32.84
2022-05-24 14:57:21.653,2.97400318086147,-2.28,-12.95,-6,35.16
2022-05-24 14:57:21.767,3.08800376951694,-2,-7.52,-8,1.31
2022-05-24 14:57:21.882,3.2030001282692,-1.19,-2.35,-8,-25.97
2022-05-24 14:57:21.997,3.31800654530525,-0.27,1.33,-8,-35.49
2022-05-24 14:57:22.111,3.43199707567692,0.22,1.15,-5,-30.64
2022-05-24 14:57:22.226,3.54700349271297,0.07,-2.19,-3,0.01
2022-05-24 14:57:22.341,3.66199985146523,-0.45,-5.58,-3,18.42
2022-05-24 14:57:22.455,3.7760004401207,-1.19,-9.13,-3,29.31
2022-05-24 14:57:22.570,3.89100685715675,-1.29,-6.73,-5,13.25
2022-05-24 14:57:22.684,4.00499738752842,-0.77,-2.19,-4,-15.98
2022-05-24 14:57:22.799,4.12000380456448,0.18,3.05,-5,-28.92
2022-05-24 14:57:22.913,4.23400439321995,1.09,6.06,-3,-44.02
2022-05-24 14:57:23.024,4.34499755501747,1.26,3.39,1,-16.44
2022-05-24 14:57:23.139,4.46000397205353,0.91,-0.12,3,14.43
2022-05-24 14:57:23.254,4.57500033080578,0.53,-1.53,3,21.77
2022-05-24 14:57:23.368,4.68900091946125,0.2,-2.49,3,22.51
2022-05-24 14:57:23.484,4.80500310659409,0.33,-0.01,2,9.31
2022-05-24 14:57:23.598,4.91900369524956,1.17,6.02,2,-22.32
2022-05-24 14:57:23.713,5.03400005400181,2.19,10.38,2,-35.29
2022-05-24 14:57:23.828,5.14900647103786,2.62,9.33,5,-25.04
2022-05-24 14:57:23.942,5.26299700140953,2.53,6.68,7,1.15
2022-05-24 14:57:24.057,5.37800341844559,2.29,5.19,9,11.05
2022-05-24 14:57:24.172,5.49299977719784,1.81,2.52,8,30
2022-05-24 14:57:24.286,5.60700036585331,1.3,0.54,7,29.39
2022-05-24 14:57:24.401,5.72200678288937,1.2,2.02,6,16.37
2022-05-24 14:57:24.515,5.83599731326103,1.29,3.14,4,9.46
2022-05-24 14:57:24.626,5.94700053334236,1.4,3.63,4,0.06
2022-05-24 14:57:24.741,6.06199689209461,1.79,6.21,5,-9.59
2022-05-24 14:57:24.856,6.17700330913067,2.29,8.49,4,-12.76
2022-05-24 14:57:24.970,6.29100389778614,2.35,6.75,4,-7.74
2022-05-24 14:57:25.085,6.40600025653839,1.67,1.1,4,19.35
2022-05-24 14:57:25.199,6.52000084519386,0.49,-5.22,3,43.79
2022-05-24 14:57:25.314,6.63499720394611,-0.33,-6.44,0,37.48
2022-05-24 14:57:25.429,6.75000362098217,0.2,1.22,-4,-15.3
2022-05-24 14:57:25.543,6.86400420963764,0.45,0.92,-4,-19.94
2022-05-24 14:57:25.658,6.97900056838989,0.51,0.28,-4,-12.36
2022-05-24 14:57:25.773,7.09399692714214,0.58,0.62,-2,-15.27
2022-05-24 14:57:25.888,7.2090033441782,0.53,-0.11,0,-1.57
2022-05-24 14:57:26.002,7.32300393283367,0.25,-2.14,0,14.81
2022-05-24 14:57:26.113,7.4339970946312,-0.5,-6.74,-2,32.75
2022-05-24 14:57:26.228,7.54900351166725,-1.21,-9.12,-4,29.23
2022-05-24 14:57:26.342,7.66300410032272,-1.32,-6.84,-7,7.96
2022-05-24 14:57:26.457,7.77800045907497,-0.83,-2.49,-6,-22.93
2022-05-24 14:57:26.571,7.89200104773045,-0.22,0.16,-6,-21.94
2022-05-24 14:57:26.686,8.0069974064827,0.13,0.19,-4,-20.52
2022-05-24 14:57:26.801,8.12200382351875,-0.24,-4.22,-3,11.05
2022-05-24 14:57:26.915,8.23600441217422,-1.37,-11.5,-4,44.06
2022-05-24 14:57:27.030,8.35100077092648,-2.28,-13.73,-6,40.12
2022-05-24 14:57:27.144,8.46500135958195,-1.65,-4.74,-9,-15.54
2022-05-24 14:57:27.260,8.58100354671478,-0.69,0.04,-9,-40.17
2022-05-24 14:57:27.374,8.69500413537025,-0.91,-5.9,-7,-1.12
2022-05-24 14:57:27.489,8.81000049412251,-1.74,-11.5,-6,28.87
2022-05-24 14:57:27.604,8.92499685287476,-2.99,-17.64,-8,54.99
2022-05-24 14:57:27.719,9.04000326991081,-2.44,-7.91,-11,-15.72
2022-05-24 14:57:27.833,9.15400385856628,-1.22,-0.69,-11,-51.45
2022-05-24 14:57:27.942,9.26300548017025,-0.89,-3.45,-8,-24.28
2022-05-24 14:57:28.058,9.37899760901928,-0.97,-5.51,-4,-3.25
2022-05-24 14:57:28.173,9.49400402605534,-1.62,-10.28,-4,33.75
2022-05-24 14:57:28.288,9.60900038480759,-2.89,-17.39,-7,58.39
2022-05-24 14:57:28.403,9.72400680184364,-2.55,-9.16,-11,-6.74
2022-05-24 14:57:28.516,9.83700156211853,-0.85,2.67,-11,-71.03
2022-05-24 14:57:28.631,9.95199792087078,-0.71,-3.63,-7,-18.94
2022-05-24 14:57:28.746,10.0670043379068,-0.53,-2.82,-4,-11.9
2022-05-24 14:57:28.861,10.1820006966591,-0.07,0.01,-2,-15.63
2022-05-24 14:57:28.976,10.2969970554113,-0.84,-8.02,-1,33.93
2022-05-24 14:57:29.090,10.4109976440668,-2.1,-14.59,-4,59.24
2022-05-24 14:57:29.205,10.5260040611029,-1.41,-3.67,-8,-19.45
2022-05-24 14:57:29.320,10.6410004198551,-0.01,4.36,-8,-61.41
2022-05-24 14:57:29.435,10.7560068368912,0.05,-1.33,-5,-17.17
2022-05-24 14:57:29.549,10.8699973672628,-1.03,-10.04,-2,33.33
2022-05-24 14:57:29.663,10.9839979559183,-1.67,-10.42,-4,35.38
2022-05-24 14:57:29.779,11.1000001430511,-1.5,-6.27,-6,0.93
2022-05-24 14:57:29.889,11.2099975347519,-0.68,-0.51,-7,-29.64
2022-05-24 14:57:30.003,11.3239981234074,0.39,4.29,-5,-48.96
2022-05-24 14:57:30.118,11.4390045404434,0.87,3.38,-1,-27.13
2022-05-24 14:57:30.232,11.5530051290989,0.09,-4.83,1,29.39
2022-05-24 14:57:30.348,11.6689972579479,-0.49,-6.01,1,29.64
2022-05-24 14:57:30.463,11.784003674984,-1.07,-8.03,-3,36.21
2022-05-24 14:57:30.577,11.8980042636395,-0.81,-3.44,-5,-8.57
2022-05-24 14:57:30.692,12.0130006223917,0.79,8,-5,-64.54
2022-05-24 14:57:30.806,12.1270012110472,1.66,7.87,0,-47.35
2022-05-24 14:57:30.921,12.2419975697994,1.64,3.93,6,-2.76
2022-05-24 14:57:31.036,12.3570039868355,1,-1.07,7,40.19
2022-05-24 14:57:31.150,12.471004575491,0.55,-1.77,5,34.9
2022-05-24 14:57:31.265,12.5860009342432,0.3,-1.77,2,23.45
2022-05-24 14:57:31.379,12.7000015228987,0.69,2.32,0,-8.78
2022-05-24 14:57:31.490,12.81100474298,1.48,6.9,0,-32.44
2022-05-24 14:57:31.605,12.9260011017323,1.95,7.14,2,-25.63
2022-05-24 14:57:31.719,13.0400016903877,1.68,2.93,3,5.1
2022-05-24 14:57:31.834,13.15499804914,1.11,-0.32,4,18.17
2022-05-24 14:57:31.949,13.270004466176,0.37,-3.71,3,34.85
2022-05-24 14:57:32.064,13.3850008249283,-0.21,-5,1,31.25
2022-05-24 14:57:32.178,13.4990014135838,0.32,1.72,-2,-12.04
2022-05-24 14:57:32.293,13.613997772336,0.95,4.33,-2,-28.76
2022-05-24 14:57:32.408,13.7290041893721,1.03,2.2,1,-11.31
2022-05-24 14:57:32.523,13.8440005481243,0.36,-3.43,1,28.68
2022-05-24 14:57:32.637,13.9580011367798,-0.33,-5.92,0,30.25
2022-05-24 14:57:32.754,14.0749990940094,-0.57,-4.81,-4,17.06
2022-05-24 14:57:32.866,14.1869980841875,-0.46,-2.88,-5,-9.4
2022-05-24 14:57:32.981,14.3020045012236,-0.05,-0.11,-4,-20.62
2022-05-24 14:57:33.092,14.4129976630211,0.58,3,-3,-26.65
2022-05-24 14:57:33.206,14.5269982516766,0.34,-1.62,0,3.57
2022-05-24 14:57:33.321,14.6420046687126,-0.51,-7.26,0,39.33
2022-05-24 14:57:33.436,14.7570010274649,-1.31,-9.8,-4,41.36
2022-05-24 14:57:33.550,14.8710016161203,-1.69,-9.33,-7,16.55
2022-05-24 14:57:33.665,14.9859979748726,-1.13,-3.29,-9,-22.31
2022-05-24 14:57:33.780,15.1010043919086,-0.22,1.47,-8,-44.64
2022-05-24 14:57:33.894,15.2150049805641,-0.36,-3.64,-5,-6.17
2022-05-24 14:57:34.010,15.3309971094131,-0.83,-6.7,-4,15.76
2022-05-24 14:57:34.124,15.4449976980686,-1.79,-12.22,-3,40.59
2022-05-24 14:57:34.238,15.5589982867241,-2.3,-12.05,-6,36.93
2022-05-24 14:57:34.353,15.6740047037601,-2.08,-8.09,-8,1.87
2022-05-24 14:57:34.468,15.7890010625124,-0.73,1.61,-9,-47.35
2022-05-24 14:57:34.582,15.9030016511679,-0.47,-2.26,-7,-21.13
2022-05-24 14:57:34.698,16.0190038383007,-0.96,-7.25,-4,9.47
2022-05-24 14:57:34.808,16.1290012300014,-1.93,-12.75,-4,42.84
2022-05-24 14:57:34.922,16.2430018186569,-2.1,-9.84,-6,17.93
2022-05-24 14:57:35.037,16.3579981774092,-1.72,-6.1,-8,-6.4
2022-05-24 14:57:35.152,16.4730045944452,-0.34,3.11,-9,-54.95
2022-05-24 14:57:35.267,16.5880009531975,0.02,-0.12,-4,-29.84
2022-05-24 14:57:35.381,16.702001541853,-1.21,-11.38,-2,47.75
2022-05-24 14:57:35.496,16.8169979006052,-2.41,-15.44,-4,57.57
2022-05-24 14:57:35.610,16.9309984892607,-2.09,-7.63,-9,0.54
2022-05-24 14:57:35.725,17.0460049062967,-1.62,-5.38,-11,-22.55
2022-05-24 14:57:35.840,17.161001265049,-0.87,-1.51,-9,-42.74
2022-05-24 14:57:35.954,17.2750018537045,-0.18,0.6,-6,-36.42
2022-05-24 14:57:36.069,17.3899982124567,-0.44,-4.43,-2,2.99
2022-05-24 14:57:36.184,17.5050046294928,-1.41,-10.91,-2,44.77
2022-05-24 14:57:36.299,17.620000988245,-2.39,-14.43,-5,49.41
2022-05-24 14:57:36.414,17.7349973469973,-1.54,-3.43,-9,-24.16
2022-05-24 14:57:36.529,17.8500037640333,-0.15,3.83,-9,-62.25
2022-05-24 14:57:36.643,17.9640043526888,0.95,6.39,-4,-60.19
2022-05-24 14:57:36.753,18.0740017443895,0.25,-3.91,2,19.74
2022-05-24 14:57:36.868,18.1889981031418,0.23,-1.08,4,15.51
2022-05-24 14:57:36.982,18.3029986917973,-0.05,-3.16,2,32.08
2022-05-24 14:57:37.098,18.4190008789301,0.15,-0.34,0,3.25
2022-05-24 14:57:37.212,18.5330014675856,1.22,7.2,0,-37.96
2022-05-24 14:57:37.328,18.6490036547184,1.92,8.01,2,-30.16
2022-05-24 14:57:37.442,18.7630042433739,2.14,6.68,5,-13.18
2022-05-24 14:57:37.556,18.8770048320293,1.93,4.08,7,10.06
2022-05-24 14:57:37.670,18.9910054206848,1.54,1.96,7,23.41
2022-05-24 14:57:37.787,19.1080033779144,1.07,-0.09,6,28.73
2022-05-24 14:57:37.901,19.2220039665699,1.02,1.63,4,13.06
2022-05-24 14:57:38.015,19.3360045552254,1.91,8.83,3,-28.98
2022-05-24 14:57:38.129,19.4500051438808,2.48,9.45,5,-25.47
2022-05-24 14:57:38.244,19.5650015026331,1.64,0.27,7,32.01
2022-05-24 14:57:38.354,19.6749988943338,0.45,-5.38,6,56.07
2022-05-24 14:57:38.469,19.7900053113699,0.51,0.31,2,12.2
2022-05-24 14:57:38.584,19.9050016701221,1.61,8.66,0,-40.27
2022-05-24 14:57:38.699,20.0199980288744,2.21,8.62,2,-34.49
2022-05-24 14:57:38.813,20.1339986175299,1.62,1.32,5,13.82
2022-05-24 14:57:38.928,20.2490050345659,0.46,-5.17,6,49.19
2022-05-24 14:57:39.043,20.3640013933182,-0.67,-9.03,2,61.85
2022-05-24 14:57:39.158,20.4789977520704,-0.59,-3.46,-4,7.63
2022-05-24 14:57:39.272,20.5929983407259,0.78,6.93,-7,-61.38
2022-05-24 14:57:39.387,20.708004757762,2.13,11.59,-3,-78.69
2022-05-24 14:57:39.502,20.8230011165142,1.08,-2.52,6,22
2022-05-24 14:57:39.616,20.9370017051697,0.79,-0.25,7,31.84
2022-05-24 14:57:39.731,21.0519980639219,1.34,5.36,6,0.52
2022-05-24 14:57:39.846,21.167004480958,0.84,-1.03,6,33.7
2022-05-24 14:57:39.956,21.2770018726587,0.46,-1.78,4,31.01
2022-05-24 14:57:40.071,21.391998231411,1.11,4.99,0,-13.13
2022-05-24 14:57:40.185,21.5059988200665,1.01,1.36,2,-3.56
2022-05-24 14:57:40.300,21.6210052371025,1.05,2.07,2,3.24
2022-05-24 14:57:40.415,21.7360015958548,0.65,-1.19,2,17.87
2022-05-24 14:57:40.529,21.8500021845102,0.19,-3.12,2,23.52
2022-05-24 14:57:40.644,21.9649985432625,-0.26,-4.64,1,29.06
2022-05-24 14:57:40.759,22.0800049602985,0.28,1.63,0,-8.68
2022-05-24 14:57:40.873,22.194005548954,1.1,5.64,-2,-24.26
2022-05-24 14:57:40.988,22.3090019077063,0.75,-0.6,0,3.02
2022-05-24 14:57:41.103,22.4239982664585,-0.94,-12.42,0,66.47
2022-05-24 14:57:41.218,22.5390046834946,-2,-13.39,-6,50.69
2022-05-24 14:57:41.332,22.65300527215,-0.99,-0.8,-10,-43.56
2022-05-24 14:57:41.447,22.7680016309023,-0.36,-0.27,-9,-42.32
2022-05-24 14:57:41.562,22.8829979896545,0.64,4.9,-6,-58.14
2022-05-24 14:57:41.672,22.9930054396391,0.64,0.48,1,-14.19
2022-05-24 14:57:41.787,23.1080017983913,-0.67,-9.81,4,61.97
2022-05-24 14:57:41.900,23.22100661695,-1.79,-12.91,0,70.45
2022-05-24 14:57:42.016,23.3369987457991,-1.53,-5.96,-8,7.62
2022-05-24 14:57:42.131,23.4520051628351,-0.61,0.15,-11,-48.06
2022-05-24 14:57:42.245,23.5660057514906,0.51,4.95,-8,-69.09
2022-05-24 14:57:42.360,23.6810021102428,0.34,-1.3,-2,-12.62
2022-05-24 14:57:42.475,23.7959984689951,0.3,-0.87,2,2.52
2022-05-24 14:57:42.590,23.9110048860312,1.08,5.45,4,-16.51
2022-05-24 14:57:42.705,24.0260012447834,1.75,7.31,4,-13.08
2022-05-24 14:57:42.820,24.1409976035357,1.44,1.92,4,13.42
2022-05-24 14:57:42.934,24.2549981921911,0.53,-3.9,4,35.68
2022-05-24 14:57:43.048,24.3689987808466,-0.02,-4.18,1,30.14
2022-05-24 14:57:43.163,24.4840051978827,0.41,1.55,-2,-13.17
2022-05-24 14:57:43.278,24.5990015566349,1.47,8.06,-2,-49.31
2022-05-24 14:57:43.389,24.7100047767162,1.68,5.05,2,-22.08
2022-05-24 14:57:43.503,24.8240053653717,1.71,4.32,5,-3
2022-05-24 14:57:43.618,24.939001724124,2.06,6.99,5,-7.77
2022-05-24 14:57:43.732,25.0530023127794,2.07,5.56,6,-1.21
2022-05-24 14:57:43.848,25.1690044999123,1.06,-2.43,5,41.83
2022-05-24 14:57:43.962,25.2830050885677,0.65,-1.28,3,20.05
2022-05-24 14:57:44.077,25.39800144732,0.99,3.21,0,-9.04
2022-05-24 14:57:44.190,25.5110062658787,2.28,11.88,1,-58.92
2022-05-24 14:57:44.306,25.6269983947277,2.42,7.34,5,-16.13
2022-05-24 14:57:44.422,25.7430005818605,3.06,11.76,8,-26.08
2022-05-24 14:57:44.535,25.8560054004192,2.73,6.34,10,15.97
2022-05-24 14:57:44.650,25.9710017591715,1.24,-3.9,10,66.29
2022-05-24 14:57:44.764,26.085002347827,0.41,-3.96,6,51.61
2022-05-24 14:57:44.879,26.1999987065792,0.61,1.28,0,5.31
2022-05-24 14:57:44.989,26.3100061565638,2.08,11.94,-3,-65.53
2022-05-24 14:57:45.104,26.425002515316,2.56,9.34,3,-46.09
2022-05-24 14:57:45.219,26.5399988740683,1.89,1.93,8,21.53
2022-05-24 14:57:45.333,26.6539994627237,1.4,0.96,9,33.9
2022-05-24 14:57:45.448,26.7690058797598,0.84,-1.24,7,42.73
2022-05-24 14:57:45.563,26.884002238512,0.49,-1.56,3,31.09
2022-05-24 14:57:45.678,26.9989985972643,0.72,1.75,0,-2.53
2022-05-24 14:57:45.793,27.1140050143003,1,3.01,0,-14.12
2022-05-24 14:57:45.908,27.2290013730526,0.92,1.08,0,0.84
2022-05-24 14:57:46.021,27.3420061916113,0.75,0.11,0,3.06
2022-05-24 14:57:46.136,27.4570025503635,0.47,-1.34,0,9.04
2022-05-24 14:57:46.251,27.5719989091158,-0.03,-4.03,0,20.7
2022-05-24 14:57:46.366,27.6870053261518,-0.41,-4.81,0,21.47
2022-05-24 14:57:46.481,27.8020016849041,-0.25,-1.93,-3,6.47
2022-05-24 14:57:46.591,27.9119990766048,-0.47,-4.38,-3,7.69
2022-05-24 14:57:46.706,28.0270054936409,-1.06,-8.03,-4,26.76
2022-05-24 14:57:46.820,28.1410060822964,-1.47,-8.7,-4,20.81
2022-05-24 14:57:46.936,28.2569982111454,-0.96,-2.89,-4,-7.39
2022-05-24 14:57:47.050,28.3709987998009,0.01,2.51,-4,-26.91
2022-05-24 14:57:47.164,28.4849993884563,0.62,3.13,-4,-23.5
2022-05-24 14:57:47.279,28.6000058054924,0.4,-1.36,-2,-0.89
2022-05-24 14:57:47.393,28.7140063941479,-0.78,-9.61,-2,44.26
2022-05-24 14:57:47.508,28.8290027529001,-1.78,-12.34,-4,45.17
2022-05-24 14:57:47.623,28.9439991116524,-1.91,-9.01,-9,11.51
2022-05-24 14:57:47.738,29.0590055286884,-1.19,-2.77,-10,-37.28
2022-05-24 14:57:47.853,29.1740018874407,-0.92,-3.81,-9,-22.93
2022-05-24 14:57:47.967,29.2880024760962,-0.97,-5.32,-6,-10.99
2022-05-24 14:57:48.082,29.4029988348484,-1.02,-5.6,-5,1.81
2022-05-24 14:57:48.197,29.5180052518845,-1.44,-8.58,-5,17.4
2022-05-24 14:57:48.307,29.6280026435852,-2.76,-17.2,-6,55.61
2022-05-24 14:57:48.422,29.7429990023375,-2.85,-12.09,-9,14.47
2022-05-24 14:57:48.536,29.8569995909929,-2.14,-6.14,-11,-21.74
2022-05-24 14:57:48.651,29.972006008029,-1.25,-2.25,-10,-39.71
2022-05-24 14:57:48.766,30.0870023667812,-1.31,-6.61,-8,-5.99
2022-05-24 14:57:48.881,30.2019987255335,-1.42,-7.21,-5,-0.34
2022-05-24 14:57:48.995,30.315999314189,-1.88,-10.35,-6,26.9
2022-05-24 14:57:49.111,30.4320015013218,-2.35,-12.01,-6,22.67
